Year,Month,Day,Hour,Minute,Value (Times are PST for temperature in C)
2014,04,28,00,00,6.60
2014,04,28,00,01,6.60
2014,04,28,00,02,6.60
2014,04,28,00,03,6.70
2014,04,28,00,04,6.70
2014,04,28,00,05,6.70
2014,04,28,00,06,6.70
2014,04,28,00,07,6.70
2014,04,28,00,08,6.70
2014,04,28,00,09,6.70
2014,04,28,00,10,6.70
2014,04,28,00,11,6.70
2014,04,28,00,12,6.70
2014,04,28,00,13,6.60
2014,04,28,00,14,6.60
2014,04,28,00,15,6.60
2014,04,28,00,16,6.60
2014,04,28,00,17,6.60
2014,04,28,00,18,6.50
2014,04,28,00,19,6.40
2014,04,28,00,20,6.30
2014,04,28,00,21,6.30
2014,04,28,00,22,6.20
2014,04,28,00,23,6.10
2014,04,28,00,24,6.00
2014,04,28,00,25,5.90
2014,04,28,00,26,5.90
2014,04,28,00,27,5.80
2014,04,28,00,28,5.80
2014,04,28,00,29,5.80
2014,04,28,00,30,5.70
2014,04,28,00,31,5.70
2014,04,28,00,32,5.70
2014,04,28,00,33,5.60
2014,04,28,00,34,5.60
2014,04,28,00,35,5.50
2014,04,28,00,36,5.50
2014,04,28,00,37,5.40
2014,04,28,00,38,5.40
2014,04,28,00,39,5.50
2014,04,28,00,40,5.50
2014,04,28,00,41,5.60
2014,04,28,00,42,5.60
2014,04,28,00,43,5.60
2014,04,28,00,44,5.60
2014,04,28,00,45,5.60
2014,04,28,00,46,5.60
2014,04,28,00,47,5.70
2014,04,28,00,48,5.70
2014,04,28,00,49,5.70
2014,04,28,00,50,5.70
2014,04,28,00,51,5.70
2014,04,28,00,52,5.70
2014,04,28,00,53,5.60
2014,04,28,00,54,5.60
2014,04,28,00,55,5.50
2014,04,28,00,56,5.50
2014,04,28,00,57,5.40
2014,04,28,00,58,5.40
2014,04,28,00,59,5.30
2014,04,28,01,00,5.30
2014,04,28,01,01,5.20
2014,04,28,01,02,5.20
2014,04,28,01,03,5.20
2014,04,28,01,04,5.10
2014,04,28,01,05,5.10
2014,04,28,01,06,5.10
2014,04,28,01,07,5.00
2014,04,28,01,08,5.00
2014,04,28,01,09,4.90
2014,04,28,01,10,4.90
2014,04,28,01,11,4.90
2014,04,28,01,12,4.80
2014,04,28,01,13,4.80
2014,04,28,01,14,4.80
2014,04,28,01,15,4.70
2014,04,28,01,16,4.70
2014,04,28,01,17,4.70
2014,04,28,01,18,4.70
2014,04,28,01,19,4.70
2014,04,28,01,20,4.70
2014,04,28,01,21,4.60
2014,04,28,01,22,4.60
2014,04,28,01,23,4.60
2014,04,28,01,24,4.60
2014,04,28,01,25,4.50
2014,04,28,01,26,4.50
2014,04,28,01,27,4.40
2014,04,28,01,28,4.40
2014,04,28,01,29,4.40
2014,04,28,01,30,4.40
2014,04,28,01,31,4.40
2014,04,28,01,32,4.40
2014,04,28,01,33,4.40
2014,04,28,01,34,4.40
2014,04,28,01,35,4.40
2014,04,28,01,36,4.40
2014,04,28,01,37,4.40
2014,04,28,01,38,4.40
2014,04,28,01,39,4.40
2014,04,28,01,40,4.30
2014,04,28,01,41,4.30
2014,04,28,01,42,4.30
2014,04,28,01,43,4.20
2014,04,28,01,44,4.20
2014,04,28,01,45,4.20
2014,04,28,01,46,4.20
2014,04,28,01,47,4.20
2014,04,28,01,48,4.20
2014,04,28,01,49,4.30
2014,04,28,01,50,4.30
2014,04,28,01,51,4.30
2014,04,28,01,52,4.20
2014,04,28,01,53,4.20
2014,04,28,01,54,4.20
2014,04,28,01,55,4.20
2014,04,28,01,56,4.20
2014,04,28,01,57,4.20
2014,04,28,01,58,4.30
2014,04,28,01,59,4.40
2014,04,28,02,00,4.50
2014,04,28,02,01,4.50
2014,04,28,02,02,4.50
2014,04,28,02,03,4.50
2014,04,28,02,04,4.50
2014,04,28,02,05,4.50
2014,04,28,02,06,4.50
2014,04,28,02,07,4.50
2014,04,28,02,08,4.40
2014,04,28,02,09,4.40
2014,04,28,02,10,4.40
2014,04,28,02,11,4.40
2014,04,28,02,12,4.40
2014,04,28,02,13,4.40
2014,04,28,02,14,4.40
2014,04,28,02,15,4.40
2014,04,28,02,16,4.40
2014,04,28,02,17,4.40
2014,04,28,02,18,4.40
2014,04,28,02,19,4.40
2014,04,28,02,20,4.40
2014,04,28,02,21,4.40
2014,04,28,02,22,4.40
2014,04,28,02,23,4.40
2014,04,28,02,24,4.40
2014,04,28,02,25,4.50
2014,04,28,02,26,4.50
2014,04,28,02,27,4.60
2014,04,28,02,28,4.60
2014,04,28,02,29,4.60
2014,04,28,02,30,4.60
2014,04,28,02,31,4.60
2014,04,28,02,32,4.50
2014,04,28,02,33,4.50
2014,04,28,02,34,4.40
2014,04,28,02,35,4.40
2014,04,28,02,36,4.50
2014,04,28,02,37,4.50
2014,04,28,02,38,4.50
2014,04,28,02,39,4.40
2014,04,28,02,40,4.40
2014,04,28,02,41,4.40
2014,04,28,02,42,4.30
2014,04,28,02,43,4.20
2014,04,28,02,44,4.20
2014,04,28,02,45,4.20
2014,04,28,02,46,4.10
2014,04,28,02,47,4.10
2014,04,28,02,48,4.10
2014,04,28,02,49,4.10
2014,04,28,02,50,4.10
2014,04,28,02,51,4.00
2014,04,28,02,52,4.10
2014,04,28,02,53,4.10
2014,04,28,02,54,4.10
2014,04,28,02,55,4.10
2014,04,28,02,56,4.20
2014,04,28,02,57,4.40
2014,04,28,02,58,4.50
2014,04,28,02,59,4.70
2014,04,28,03,00,4.80
2014,04,28,03,01,5.00
2014,04,28,03,02,5.10
2014,04,28,03,03,5.20
2014,04,28,03,04,5.30
2014,04,28,03,05,5.50
2014,04,28,03,06,5.70
2014,04,28,03,07,5.80
2014,04,28,03,08,6.00
2014,04,28,03,09,6.10
2014,04,28,03,10,6.20
2014,04,28,03,11,6.20
2014,04,28,03,12,6.30
2014,04,28,03,13,6.30
2014,04,28,03,14,6.30
2014,04,28,03,15,6.30
2014,04,28,03,16,6.30
2014,04,28,03,17,6.30
2014,04,28,03,18,6.30
2014,04,28,03,19,6.40
2014,04,28,03,20,6.40
2014,04,28,03,21,6.40
2014,04,28,03,22,6.50
2014,04,28,03,23,6.50
2014,04,28,03,24,6.50
2014,04,28,03,25,6.50
2014,04,28,03,26,6.50
2014,04,28,03,27,6.50
2014,04,28,03,28,6.60
2014,04,28,03,29,6.60
2014,04,28,03,30,6.60
2014,04,28,03,31,6.60
2014,04,28,03,32,6.60
2014,04,28,03,33,6.70
2014,04,28,03,34,6.70
2014,04,28,03,35,6.70
2014,04,28,03,36,6.70
2014,04,28,03,37,6.80
2014,04,28,03,38,6.80
2014,04,28,03,39,6.80
2014,04,28,03,40,6.70
2014,04,28,03,41,6.70
2014,04,28,03,42,6.70
2014,04,28,03,43,6.70
2014,04,28,03,44,6.70
2014,04,28,03,45,6.70
2014,04,28,03,46,6.70
2014,04,28,03,47,6.80
2014,04,28,03,48,6.80
2014,04,28,03,49,6.90
2014,04,28,03,50,6.90
2014,04,28,03,51,6.90
2014,04,28,03,52,7.00
2014,04,28,03,53,7.00
2014,04,28,03,54,7.10
2014,04,28,03,55,7.20
2014,04,28,03,56,7.20
2014,04,28,03,57,7.30
2014,04,28,03,58,7.30
2014,04,28,03,59,7.30
2014,04,28,04,00,7.30
2014,04,28,04,01,7.30
2014,04,28,04,02,7.20
2014,04,28,04,03,7.10
2014,04,28,04,04,6.90
2014,04,28,04,05,6.80
2014,04,28,04,06,6.70
2014,04,28,04,07,6.50
2014,04,28,04,08,6.40
2014,04,28,04,09,6.20
2014,04,28,04,10,6.10
2014,04,28,04,11,6.00
2014,04,28,04,12,5.90
2014,04,28,04,13,5.80
2014,04,28,04,14,5.80
2014,04,28,04,15,5.80
2014,04,28,04,16,5.80
2014,04,28,04,17,5.70
2014,04,28,04,18,5.70
2014,04,28,04,19,5.70
2014,04,28,04,20,5.70
2014,04,28,04,21,5.70
2014,04,28,04,22,5.60
2014,04,28,04,23,5.60
2014,04,28,04,24,5.60
2014,04,28,04,25,5.60
2014,04,28,04,26,5.50
2014,04,28,04,27,5.50
2014,04,28,04,28,5.40
2014,04,28,04,29,5.40
2014,04,28,04,30,5.30
2014,04,28,04,31,5.30
2014,04,28,04,32,5.40
2014,04,28,04,33,5.40
2014,04,28,04,34,5.50
2014,04,28,04,35,5.50
2014,04,28,04,36,5.50
2014,04,28,04,37,5.50
2014,04,28,04,38,5.50
2014,04,28,04,39,5.50
2014,04,28,04,40,5.50
2014,04,28,04,41,5.40
2014,04,28,04,42,5.40
2014,04,28,04,43,5.40
2014,04,28,04,44,5.40
2014,04,28,04,45,5.40
2014,04,28,04,46,5.40
2014,04,28,04,47,5.50
2014,04,28,04,48,5.50
2014,04,28,04,49,5.60
2014,04,28,04,50,5.60
2014,04,28,04,51,5.60
2014,04,28,04,52,5.60
2014,04,28,04,53,5.60
2014,04,28,04,54,5.50
2014,04,28,04,55,5.50
2014,04,28,04,56,5.40
2014,04,28,04,57,5.30
2014,04,28,04,58,5.30
2014,04,28,04,59,5.20
2014,04,28,05,00,5.10
2014,04,28,05,01,5.00
2014,04,28,05,02,4.90
2014,04,28,05,03,4.80
2014,04,28,05,04,4.80
2014,04,28,05,05,4.70
2014,04,28,05,06,4.70
2014,04,28,05,07,4.60
2014,04,28,05,08,4.50
2014,04,28,05,09,4.40
2014,04,28,05,10,4.40
2014,04,28,05,11,4.40
2014,04,28,05,12,4.30
2014,04,28,05,13,4.30
2014,04,28,05,14,4.30
2014,04,28,05,15,4.30
2014,04,28,05,16,4.20
2014,04,28,05,17,4.20
2014,04,28,05,18,4.20
2014,04,28,05,19,4.20
2014,04,28,05,20,4.20
2014,04,28,05,21,4.10
2014,04,28,05,22,4.10
2014,04,28,05,23,4.10
2014,04,28,05,24,4.10
2014,04,28,05,25,4.00
2014,04,28,05,26,4.00
2014,04,28,05,27,3.90
2014,04,28,05,28,3.90
2014,04,28,05,29,3.80
2014,04,28,05,30,3.80
2014,04,28,05,31,3.70
2014,04,28,05,32,3.60
2014,04,28,05,33,3.60
2014,04,28,05,34,3.50
2014,04,28,05,35,3.50
2014,04,28,05,36,3.40
2014,04,28,05,37,3.40
2014,04,28,05,38,3.40
2014,04,28,05,39,3.30
2014,04,28,05,40,3.30
2014,04,28,05,41,3.20
2014,04,28,05,42,3.20
2014,04,28,05,43,3.20
2014,04,28,05,44,3.10
2014,04,28,05,45,3.10
2014,04,28,05,46,3.10
2014,04,28,05,47,3.10
2014,04,28,05,48,3.10
2014,04,28,05,49,3.00
2014,04,28,05,50,3.00
2014,04,28,05,51,2.90
2014,04,28,05,52,2.90
2014,04,28,05,53,2.90
2014,04,28,05,54,2.80
2014,04,28,05,55,2.80
2014,04,28,05,56,2.80
2014,04,28,05,57,2.70
2014,04,28,05,58,2.70
2014,04,28,05,59,2.70
2014,04,28,06,00,2.70
2014,04,28,06,01,2.70
2014,04,28,06,02,2.70
2014,04,28,06,03,2.70
2014,04,28,06,04,2.70
2014,04,28,06,05,2.70
2014,04,28,06,06,2.60
2014,04,28,06,07,2.60
2014,04,28,06,08,2.60
2014,04,28,06,09,2.60
2014,04,28,06,10,2.60
2014,04,28,06,11,2.60
2014,04,28,06,12,2.60
2014,04,28,06,13,2.60
2014,04,28,06,14,2.60
2014,04,28,06,15,2.50
2014,04,28,06,16,2.50
2014,04,28,06,17,2.50
2014,04,28,06,18,2.40
2014,04,28,06,19,2.40
2014,04,28,06,20,2.40
2014,04,28,06,21,2.40
2014,04,28,06,22,2.40
2014,04,28,06,23,2.30
2014,04,28,06,24,2.30
2014,04,28,06,25,2.40
2014,04,28,06,26,2.50
2014,04,28,06,27,2.50
2014,04,28,06,28,2.60
2014,04,28,06,29,2.70
2014,04,28,06,30,2.70
2014,04,28,06,31,2.70
2014,04,28,06,32,2.70
2014,04,28,06,33,2.70
2014,04,28,06,34,2.70
2014,04,28,06,35,2.70
2014,04,28,06,36,2.60
2014,04,28,06,37,2.60
2014,04,28,06,38,2.60
2014,04,28,06,39,2.60
2014,04,28,06,40,2.60
2014,04,28,06,41,2.60
2014,04,28,06,42,2.60
2014,04,28,06,43,2.60
2014,04,28,06,44,2.70
2014,04,28,06,45,2.70
2014,04,28,06,46,2.70
2014,04,28,06,47,2.70
2014,04,28,06,48,2.70
2014,04,28,06,49,2.70
2014,04,28,06,50,2.70
2014,04,28,06,51,2.70
2014,04,28,06,52,2.70
2014,04,28,06,53,2.70
2014,04,28,06,54,2.70
2014,04,28,06,55,2.80
2014,04,28,06,56,2.80
2014,04,28,06,57,2.80
2014,04,28,06,58,2.80
2014,04,28,06,59,2.80
2014,04,28,07,00,2.80
2014,04,28,07,01,2.90
2014,04,28,07,02,2.90
2014,04,28,07,03,2.90
2014,04,28,07,04,3.00
2014,04,28,07,05,3.00
2014,04,28,07,06,3.10
2014,04,28,07,07,3.10
2014,04,28,07,08,3.20
2014,04,28,07,09,3.20
2014,04,28,07,10,3.30
2014,04,28,07,11,3.30
2014,04,28,07,12,3.40
2014,04,28,07,13,3.50
2014,04,28,07,14,3.50
2014,04,28,07,15,3.60
2014,04,28,07,16,3.70
2014,04,28,07,17,3.70
2014,04,28,07,18,3.80
2014,04,28,07,19,3.90
2014,04,28,07,20,4.00
2014,04,28,07,21,4.00
2014,04,28,07,22,4.10
2014,04,28,07,23,4.20
2014,04,28,07,24,4.30
2014,04,28,07,25,4.30
2014,04,28,07,26,4.40
2014,04,28,07,27,4.50
2014,04,28,07,28,4.60
2014,04,28,07,29,4.70
2014,04,28,07,30,4.80
2014,04,28,07,31,4.80
2014,04,28,07,32,5.00
2014,04,28,07,33,5.10
2014,04,28,07,34,5.20
2014,04,28,07,35,5.30
2014,04,28,07,36,5.50
2014,04,28,07,37,5.60
2014,04,28,07,38,5.70
2014,04,28,07,39,5.80
2014,04,28,07,40,5.90
2014,04,28,07,41,6.00
2014,04,28,07,42,6.10
2014,04,28,07,43,6.20
2014,04,28,07,44,6.30
2014,04,28,07,45,6.40
2014,04,28,07,46,6.60
2014,04,28,07,47,6.80
2014,04,28,07,48,6.90
2014,04,28,07,49,7.10
2014,04,28,07,50,7.30
2014,04,28,07,51,7.40
2014,04,28,07,52,7.60
2014,04,28,07,53,7.80
2014,04,28,07,54,7.90
2014,04,28,07,55,8.00
2014,04,28,07,56,8.20
2014,04,28,07,57,8.30
2014,04,28,07,58,8.40
2014,04,28,07,59,8.50
2014,04,28,08,00,8.60
2014,04,28,08,01,8.70
2014,04,28,08,02,8.70
2014,04,28,08,03,8.80
2014,04,28,08,04,8.80
2014,04,28,08,05,8.80
2014,04,28,08,06,8.80
2014,04,28,08,07,8.90
2014,04,28,08,08,8.90
2014,04,28,08,09,8.90
2014,04,28,08,10,8.90
2014,04,28,08,11,8.90
2014,04,28,08,12,8.90
2014,04,28,08,13,8.80
2014,04,28,08,14,8.80
2014,04,28,08,15,8.80
2014,04,28,08,16,8.80
2014,04,28,08,17,8.90
2014,04,28,08,18,8.90
2014,04,28,08,19,8.90
2014,04,28,08,20,8.90
2014,04,28,08,21,8.90
2014,04,28,08,22,8.90
2014,04,28,08,23,8.90
2014,04,28,08,24,8.90
2014,04,28,08,25,8.80
2014,04,28,08,26,8.80
2014,04,28,08,27,8.80
2014,04,28,08,28,8.80
2014,04,28,08,29,8.80
2014,04,28,08,30,8.80
2014,04,28,08,31,8.80
2014,04,28,08,32,8.80
2014,04,28,08,33,8.80
2014,04,28,08,34,8.80
2014,04,28,08,35,8.80
2014,04,28,08,36,8.70
2014,04,28,08,37,8.70
2014,04,28,08,38,8.70
2014,04,28,08,39,8.70
2014,04,28,08,40,8.70
2014,04,28,08,41,8.70
2014,04,28,08,42,8.80
2014,04,28,08,43,8.80
2014,04,28,08,44,8.80
2014,04,28,08,45,8.90
2014,04,28,08,46,8.90
2014,04,28,08,47,9.00
2014,04,28,08,48,9.10
2014,04,28,08,49,9.20
2014,04,28,08,50,9.30
2014,04,28,08,51,9.30
2014,04,28,08,52,9.40
2014,04,28,08,53,9.40
2014,04,28,08,54,9.50
2014,04,28,08,55,9.60
2014,04,28,08,56,9.70
2014,04,28,08,57,9.70
2014,04,28,08,58,9.80
2014,04,28,08,59,9.80
2014,04,28,09,00,9.80
2014,04,28,09,01,9.80
2014,04,28,09,02,9.90
2014,04,28,09,03,9.90
2014,04,28,09,04,9.90
2014,04,28,09,05,10.00
2014,04,28,09,06,10.00
2014,04,28,09,07,10.00
2014,04,28,09,08,10.10
2014,04,28,09,09,10.10
2014,04,28,09,10,10.10
2014,04,28,09,11,10.20
2014,04,28,09,12,10.20
2014,04,28,09,13,10.20
2014,04,28,09,14,10.20
2014,04,28,09,15,10.20
2014,04,28,09,16,10.20
2014,04,28,09,17,10.20
2014,04,28,09,18,10.20
2014,04,28,09,19,10.20
2014,04,28,09,20,10.20
2014,04,28,09,21,10.20
2014,04,28,09,22,10.20
2014,04,28,09,23,10.20
2014,04,28,09,24,10.20
2014,04,28,09,25,10.30
2014,04,28,09,26,10.30
2014,04,28,09,27,10.30
2014,04,28,09,28,10.30
2014,04,28,09,29,10.30
2014,04,28,09,30,10.30
2014,04,28,09,31,10.40
2014,04,28,09,32,10.40
2014,04,28,09,33,10.40
2014,04,28,09,34,10.40
2014,04,28,09,35,10.40
2014,04,28,09,36,10.40
2014,04,28,09,37,10.40
2014,04,28,09,38,10.40
2014,04,28,09,39,10.40
2014,04,28,09,40,10.50
2014,04,28,09,41,10.50
2014,04,28,09,42,10.60
2014,04,28,09,43,10.60
2014,04,28,09,44,10.70
2014,04,28,09,45,10.70
2014,04,28,09,46,10.70
2014,04,28,09,47,10.70
2014,04,28,09,48,10.70
2014,04,28,09,49,10.70
2014,04,28,09,50,10.70
2014,04,28,09,51,10.70
2014,04,28,09,52,10.60
2014,04,28,09,53,10.60
2014,04,28,09,54,10.60
2014,04,28,09,55,10.60
2014,04,28,09,56,10.60
2014,04,28,09,57,10.50
2014,04,28,09,58,10.50
2014,04,28,09,59,10.60
2014,04,28,10,00,10.60
2014,04,28,10,01,10.60
2014,04,28,10,02,10.60
2014,04,28,10,03,10.60
2014,04,28,10,04,10.60
2014,04,28,10,05,10.60
2014,04,28,10,06,10.60
2014,04,28,10,07,10.70
2014,04,28,10,08,10.70
2014,04,28,10,09,10.80
2014,04,28,10,10,10.80
2014,04,28,10,11,10.80
2014,04,28,10,12,10.80
2014,04,28,10,13,10.80
2014,04,28,10,14,10.80
2014,04,28,10,15,10.80
2014,04,28,10,16,10.80
2014,04,28,10,17,10.80
2014,04,28,10,18,10.80
2014,04,28,10,19,10.80
2014,04,28,10,20,10.80
2014,04,28,10,21,10.80
2014,04,28,10,22,10.80
2014,04,28,10,23,10.80
2014,04,28,10,24,10.80
2014,04,28,10,25,10.80
2014,04,28,10,26,10.80
2014,04,28,10,27,10.80
2014,04,28,10,28,10.80
2014,04,28,10,29,10.80
2014,04,28,10,30,10.80
2014,04,28,10,31,10.70
2014,04,28,10,32,10.70
2014,04,28,10,33,10.70
2014,04,28,10,34,10.60
2014,04,28,10,35,10.60
2014,04,28,10,36,10.60
2014,04,28,10,37,10.60
2014,04,28,10,38,10.70
2014,04,28,10,39,10.80
2014,04,28,10,40,10.80
2014,04,28,10,41,10.80
2014,04,28,10,42,10.80
2014,04,28,10,43,10.80
2014,04,28,10,44,10.80
2014,04,28,10,45,10.80
2014,04,28,10,46,10.90
2014,04,28,10,47,10.90
2014,04,28,10,48,10.90
2014,04,28,10,49,10.90
2014,04,28,10,50,10.90
2014,04,28,10,51,11.00
2014,04,28,10,52,10.90
2014,04,28,10,53,10.90
2014,04,28,10,54,10.90
2014,04,28,10,55,10.90
2014,04,28,10,56,10.90
2014,04,28,10,57,10.90
2014,04,28,10,58,10.90
2014,04,28,10,59,10.90
2014,04,28,11,00,10.90
2014,04,28,11,01,10.90
2014,04,28,11,02,10.80
2014,04,28,11,03,10.80
2014,04,28,11,04,10.80
2014,04,28,11,05,10.90
2014,04,28,11,06,10.90
2014,04,28,11,07,10.90
2014,04,28,11,08,10.90
2014,04,28,11,09,11.00
2014,04,28,11,10,11.00
2014,04,28,11,11,11.00
2014,04,28,11,12,11.00
2014,04,28,11,13,11.00
2014,04,28,11,14,11.00
2014,04,28,11,15,11.10
2014,04,28,11,16,11.10
2014,04,28,11,17,11.10
2014,04,28,11,18,11.10
2014,04,28,11,19,11.10
2014,04,28,11,20,11.10
2014,04,28,11,21,11.10
2014,04,28,11,22,11.10
2014,04,28,11,23,11.00
2014,04,28,11,24,11.00
2014,04,28,11,25,10.90
2014,04,28,11,26,10.90
2014,04,28,11,27,10.90
2014,04,28,11,28,10.90
2014,04,28,11,29,10.90
2014,04,28,11,30,10.90
2014,04,28,11,31,11.00
2014,04,28,11,32,11.00
2014,04,28,11,33,11.00
2014,04,28,11,34,11.00
2014,04,28,11,35,11.00
2014,04,28,11,36,10.90
2014,04,28,11,37,10.90
2014,04,28,11,38,10.90
2014,04,28,11,39,11.00
2014,04,28,11,40,11.00
2014,04,28,11,41,11.10
2014,04,28,11,42,11.10
2014,04,28,11,43,11.20
2014,04,28,11,44,11.20
2014,04,28,11,45,11.30
2014,04,28,11,46,11.20
2014,04,28,11,47,11.20
2014,04,28,11,48,11.30
2014,04,28,11,49,11.30
2014,04,28,11,50,11.30
2014,04,28,11,51,11.20
2014,04,28,11,52,11.20
2014,04,28,11,53,11.20
2014,04,28,11,54,11.20
2014,04,28,11,55,11.20
2014,04,28,11,56,11.20
2014,04,28,11,57,11.20
2014,04,28,11,58,11.20
2014,04,28,11,59,11.20
2014,04,28,12,00,11.30
2014,04,28,12,01,11.30
2014,04,28,12,02,11.30
2014,04,28,12,03,11.30
2014,04,28,12,04,11.30
2014,04,28,12,05,11.30
2014,04,28,12,06,11.30
2014,04,28,12,07,11.30
2014,04,28,12,08,11.30
2014,04,28,12,09,11.30
2014,04,28,12,10,11.40
2014,04,28,12,11,11.40
2014,04,28,12,12,11.50
2014,04,28,12,13,11.50
2014,04,28,12,14,11.60
2014,04,28,12,15,11.70
2014,04,28,12,16,11.70
2014,04,28,12,17,11.70
2014,04,28,12,18,11.70
2014,04,28,12,19,11.70
2014,04,28,12,20,11.70
2014,04,28,12,21,11.70
2014,04,28,12,22,11.70
2014,04,28,12,23,11.70
2014,04,28,12,24,11.70
2014,04,28,12,25,11.70
2014,04,28,12,26,11.70
2014,04,28,12,27,11.70
2014,04,28,12,28,11.70
2014,04,28,12,29,11.70
2014,04,28,12,30,11.70
2014,04,28,12,31,11.70
2014,04,28,12,32,11.70
2014,04,28,12,33,11.70
2014,04,28,12,34,11.70
2014,04,28,12,35,11.70
2014,04,28,12,36,11.70
2014,04,28,12,37,11.70
2014,04,28,12,38,11.70
2014,04,28,12,39,11.70
2014,04,28,12,40,11.70
2014,04,28,12,41,11.70
2014,04,28,12,42,11.60
2014,04,28,12,43,11.60
2014,04,28,12,44,11.50
2014,04,28,12,45,11.40
2014,04,28,12,46,11.30
2014,04,28,12,47,11.30
2014,04,28,12,48,11.30
2014,04,28,12,49,11.30
2014,04,28,12,50,11.40
2014,04,28,12,51,11.50
2014,04,28,12,52,11.60
2014,04,28,12,53,11.70
2014,04,28,12,54,11.70
2014,04,28,12,55,11.80
2014,04,28,12,56,11.80
2014,04,28,12,57,11.90
2014,04,28,12,58,11.90
2014,04,28,12,59,11.90
2014,04,28,13,00,11.90
2014,04,28,13,01,11.80
2014,04,28,13,02,11.80
2014,04,28,13,03,11.80
2014,04,28,13,04,11.80
2014,04,28,13,05,11.80
2014,04,28,13,06,11.80
2014,04,28,13,07,11.80
2014,04,28,13,08,11.80
2014,04,28,13,09,11.90
2014,04,28,13,10,11.90
2014,04,28,13,11,12.00
2014,04,28,13,12,12.00
2014,04,28,13,13,12.10
2014,04,28,13,14,12.10
2014,04,28,13,15,12.20
2014,04,28,13,16,12.20
2014,04,28,13,17,12.20
2014,04,28,13,18,12.20
2014,04,28,13,19,12.20
2014,04,28,13,20,12.20
2014,04,28,13,21,12.10
2014,04,28,13,22,12.10
2014,04,28,13,23,12.10
2014,04,28,13,24,12.10
2014,04,28,13,25,12.20
2014,04,28,13,26,12.20
2014,04,28,13,27,12.20
2014,04,28,13,28,12.20
2014,04,28,13,29,12.20
2014,04,28,13,30,12.10
2014,04,28,13,31,12.00
2014,04,28,13,32,12.00
2014,04,28,13,33,12.00
2014,04,28,13,34,12.00
2014,04,28,13,35,12.00
2014,04,28,13,36,12.00
2014,04,28,13,37,12.10
2014,04,28,13,38,12.10
2014,04,28,13,39,12.10
2014,04,28,13,40,12.10
2014,04,28,13,41,12.20
2014,04,28,13,42,12.20
2014,04,28,13,43,12.30
2014,04,28,13,44,12.30
2014,04,28,13,45,12.40
2014,04,28,13,46,12.40
2014,04,28,13,47,12.50
2014,04,28,13,48,12.60
2014,04,28,13,49,12.60
2014,04,28,13,50,12.70
2014,04,28,13,51,12.80
2014,04,28,13,52,12.80
2014,04,28,13,53,12.80
2014,04,28,13,54,12.70
2014,04,28,13,55,12.60
2014,04,28,13,56,12.60
2014,04,28,13,57,12.60
2014,04,28,13,58,12.60
2014,04,28,13,59,12.60
2014,04,28,14,00,12.60
2014,04,28,14,01,12.60
2014,04,28,14,02,12.70
2014,04,28,14,03,12.70
2014,04,28,14,04,12.70
2014,04,28,14,05,12.80
2014,04,28,14,06,12.80
2014,04,28,14,07,12.80
2014,04,28,14,08,12.80
2014,04,28,14,09,12.80
2014,04,28,14,10,12.80
2014,04,28,14,11,12.80
2014,04,28,14,12,12.80
2014,04,28,14,13,12.80
2014,04,28,14,14,12.80
2014,04,28,14,15,12.90
2014,04,28,14,16,12.90
2014,04,28,14,17,12.90
2014,04,28,14,18,12.90
2014,04,28,14,19,12.90
2014,04,28,14,20,12.90
2014,04,28,14,21,12.90
2014,04,28,14,22,12.90
2014,04,28,14,23,12.90
2014,04,28,14,24,12.90
2014,04,28,14,25,12.90
2014,04,28,14,26,12.90
2014,04,28,14,27,12.90
2014,04,28,14,28,12.90
2014,04,28,14,29,12.90
2014,04,28,14,30,13.00
2014,04,28,14,31,13.00
2014,04,28,14,32,13.10
2014,04,28,14,33,13.10
2014,04,28,14,34,13.10
2014,04,28,14,35,13.10
2014,04,28,14,36,13.10
2014,04,28,14,37,13.10
2014,04,28,14,38,13.10
2014,04,28,14,39,13.00
2014,04,28,14,40,13.00
2014,04,28,14,41,13.00
2014,04,28,14,42,12.90
2014,04,28,14,43,12.90
2014,04,28,14,44,12.80
2014,04,28,14,45,12.80
2014,04,28,14,46,12.70
2014,04,28,14,47,12.60
2014,04,28,14,48,12.60
2014,04,28,14,49,12.60
2014,04,28,14,50,12.60
2014,04,28,14,51,12.70
2014,04,28,14,52,12.70
2014,04,28,14,53,12.70
2014,04,28,14,54,12.80
2014,04,28,14,55,12.80
2014,04,28,14,56,12.80
2014,04,28,14,57,12.80
2014,04,28,14,58,12.80
2014,04,28,14,59,12.90
2014,04,28,15,00,12.90
2014,04,28,15,01,12.90
2014,04,28,15,02,12.90
2014,04,28,15,03,12.90
2014,04,28,15,04,12.90
2014,04,28,15,05,12.90
2014,04,28,15,06,12.90
2014,04,28,15,07,12.80
2014,04,28,15,08,12.80
2014,04,28,15,09,12.90
2014,04,28,15,10,12.80
2014,04,28,15,11,12.80
2014,04,28,15,12,12.80
2014,04,28,15,13,12.80
2014,04,28,15,14,12.80
2014,04,28,15,15,12.80
2014,04,28,15,16,12.80
2014,04,28,15,17,12.70
2014,04,28,15,18,12.70
2014,04,28,15,19,12.70
2014,04,28,15,20,12.80
2014,04,28,15,21,12.80
2014,04,28,15,22,12.80
2014,04,28,15,23,12.80
2014,04,28,15,24,12.80
2014,04,28,15,25,12.80
2014,04,28,15,26,12.80
2014,04,28,15,27,12.80
2014,04,28,15,28,12.90
2014,04,28,15,29,13.00
2014,04,28,15,30,13.00
2014,04,28,15,31,13.10
2014,04,28,15,32,13.10
2014,04,28,15,33,13.10
2014,04,28,15,34,13.20
2014,04,28,15,35,13.20
2014,04,28,15,36,13.10
2014,04,28,15,37,13.10
2014,04,28,15,38,13.00
2014,04,28,15,39,13.00
2014,04,28,15,40,12.90
2014,04,28,15,41,12.90
2014,04,28,15,42,12.90
2014,04,28,15,43,12.90
2014,04,28,15,44,12.80
2014,04,28,15,45,12.80
2014,04,28,15,46,12.70
2014,04,28,15,47,12.60
2014,04,28,15,48,12.60
2014,04,28,15,49,12.60
2014,04,28,15,50,12.60
2014,04,28,15,51,12.50
2014,04,28,15,52,12.50
2014,04,28,15,53,12.50
2014,04,28,15,54,12.40
2014,04,28,15,55,12.40
2014,04,28,15,56,12.40
2014,04,28,15,57,12.40
2014,04,28,15,58,12.40
2014,04,28,15,59,12.40
2014,04,28,16,00,12.40
2014,04,28,16,01,12.50
2014,04,28,16,02,12.50
2014,04,28,16,03,12.60
2014,04,28,16,04,12.60
2014,04,28,16,05,12.70
2014,04,28,16,06,12.70
2014,04,28,16,07,12.70
2014,04,28,16,08,12.70
2014,04,28,16,09,12.70
2014,04,28,16,10,12.80
2014,04,28,16,11,12.80
2014,04,28,16,12,12.80
2014,04,28,16,13,12.80
2014,04,28,16,14,12.80
2014,04,28,16,15,12.90
2014,04,28,16,16,12.90
2014,04,28,16,17,13.00
2014,04,28,16,18,13.10
2014,04,28,16,19,13.20
2014,04,28,16,20,13.20
2014,04,28,16,21,13.30
2014,04,28,16,22,13.30
2014,04,28,16,23,13.30
2014,04,28,16,24,13.40
2014,04,28,16,25,13.40
2014,04,28,16,26,13.50
2014,04,28,16,27,13.50
2014,04,28,16,28,13.50
2014,04,28,16,29,13.60
2014,04,28,16,30,13.60
2014,04,28,16,31,13.70
2014,04,28,16,32,13.70
2014,04,28,16,33,13.70
2014,04,28,16,34,13.70
2014,04,28,16,35,13.70
2014,04,28,16,36,13.70
2014,04,28,16,37,13.60
2014,04,28,16,38,13.60
2014,04,28,16,39,13.60
2014,04,28,16,40,13.60
2014,04,28,16,41,13.60
2014,04,28,16,42,13.60
2014,04,28,16,43,13.60
2014,04,28,16,44,13.60
2014,04,28,16,45,13.60
2014,04,28,16,46,13.50
2014,04,28,16,47,13.50
2014,04,28,16,48,13.50
2014,04,28,16,49,13.50
2014,04,28,16,50,13.50
2014,04,28,16,51,13.50
2014,04,28,16,52,13.50
2014,04,28,16,53,13.50
2014,04,28,16,54,13.50
2014,04,28,16,55,13.50
2014,04,28,16,56,13.50
2014,04,28,16,57,13.60
2014,04,28,16,58,13.60
2014,04,28,16,59,13.60
2014,04,28,17,00,13.60
2014,04,28,17,01,13.60
2014,04,28,17,02,13.60
2014,04,28,17,03,13.60
2014,04,28,17,04,13.60
2014,04,28,17,05,13.60
2014,04,28,17,06,13.70
2014,04,28,17,07,13.70
2014,04,28,17,08,13.70
2014,04,28,17,09,13.70
2014,04,28,17,10,13.60
2014,04,28,17,11,13.70
2014,04,28,17,12,13.60
2014,04,28,17,13,13.60
2014,04,28,17,14,13.70
2014,04,28,17,15,13.70
2014,04,28,17,16,13.70
2014,04,28,17,17,13.70
2014,04,28,17,18,13.70
2014,04,28,17,19,13.70
2014,04,28,17,20,13.70
2014,04,28,17,21,13.60
2014,04,28,17,22,13.60
2014,04,28,17,23,13.60
2014,04,28,17,24,13.60
2014,04,28,17,25,13.60
2014,04,28,17,26,13.60
2014,04,28,17,27,13.60
2014,04,28,17,28,13.60
2014,04,28,17,29,13.60
2014,04,28,17,30,13.70
2014,04,28,17,31,13.70
2014,04,28,17,32,13.70
2014,04,28,17,33,13.70
2014,04,28,17,34,13.70
2014,04,28,17,35,13.70
2014,04,28,17,36,13.70
2014,04,28,17,37,13.70
2014,04,28,17,38,13.60
2014,04,28,17,39,13.60
2014,04,28,17,40,13.60
2014,04,28,17,41,13.50
2014,04,28,17,42,13.50
2014,04,28,17,43,13.50